TimeGMT,TemperatureF,Dew PointF,Humidity,Sea Level PressureIn,VisibilityMPH,Wind Direction,Wind SpeedMPH,Gust SpeedMPH,PrecipitationIn,Events,Conditions,WindDirDegrees,DateUTC
12:50 AM,32.0,30.2,93,30.63,-9999.0,NNE,6.9,-,N/A,,Clear,30,2013-02-26 00:50:00
1:50 AM,32.0,30.2,93,30.63,-9999.0,North,3.5,-,N/A,,Clear,360,2013-02-26 01:50:00
2:50 AM,30.2,28.4,93,30.63,-9999.0,North,2.3,-,N/A,,Clear,350,2013-02-26 02:50:00
3:50 AM,30.2,28.4,93,30.63,5.6,Calm,Calm,-,N/A,,Clear,0,2013-02-26 03:50:00
4:50 AM,32.0,30.2,93,30.63,5.0,NNE,4.6,-,N/A,,Unknown,30,2013-02-26 04:50:00
5:50 AM,32.0,30.2,93,30.63,5.0,NNE,5.8,-,N/A,,Unknown,30,2013-02-26 05:50:00
6:20 AM,33.8,32.0,93,30.63,5.0,NE,6.9,-,N/A,,Unknown,50,2013-02-26 06:20:00
6:50 AM,33.8,30.2,87,30.63,5.6,NNE,2.3,-,N/A,,Partly Cloudy,20,2013-02-26 06:50:00
7:20 AM,32.0,30.2,93,30.63,5.6,Calm,Calm,-,N/A,,Partly Cloudy,0,2013-02-26 07:20:00
7:50 AM,30.2,28.4,93,30.66,5.6,Calm,Calm,-,N/A,,Partly Cloudy,0,2013-02-26 07:50:00
8:20 AM,33.8,32.0,93,30.66,5.6,NE,3.5,-,N/A,,Partly Cloudy,50,2013-02-26 08:20:00
8:50 AM,35.6,33.8,93,30.66,-9999.0,Calm,Calm,-,N/A,,Clear,0,2013-02-26 08:50:00
9:20 AM,37.4,33.8,87,30.66,-9999.0,NNE,4.6,-,N/A,,Clear,30,2013-02-26 09:20:00
9:50 AM,39.2,33.8,81,30.66,6.2,NE,10.4,-,N/A,,Partly Cloudy,40,2013-02-26 09:50:00
10:20 AM,41.0,33.8,76,30.66,6.2,NE,11.5,-,N/A,,Partly Cloudy,50,2013-02-26 10:20:00
10:50 AM,41.0,35.6,81,30.69,6.2,NE,11.5,-,N/A,,Partly Cloudy,40,2013-02-26 10:50:00
11:20 AM,42.8,33.8,70,30.69,6.2,NE,10.4,-,N/A,,Partly Cloudy,40,2013-02-26 11:20:00
11:50 AM,44.6,33.8,66,30.66,6.2,NE,9.2,-,N/A,,Partly Cloudy,50,2013-02-26 11:50:00
12:20 PM,46.4,35.6,66,30.66,6.2,NE,11.5,-,N/A,,Partly Cloudy,50,2013-02-26 12:20:00
12:50 PM,46.4,35.6,66,30.66,-9999.0,NE,11.5,-,N/A,,Clear,50,2013-02-26 12:50:00
1:20 PM,48.2,35.6,62,30.66,-9999.0,NE,11.5,-,N/A,,Clear,50,2013-02-26 13:20:00
1:50 PM,48.2,35.6,62,30.63,-9999.0,NE,11.5,-,N/A,,Clear,50,2013-02-26 13:50:00
2:20 PM,50.0,33.8,54,30.63,-9999.0,NE,6.9,-,N/A,,Clear,50,2013-02-26 14:20:00
2:50 PM,51.8,35.6,54,30.63,-9999.0,NE,8.1,-,N/A,,Clear,40,2013-02-26 14:50:00
3:20 PM,51.8,35.6,54,30.63,-9999.0,NNE,6.9,-,N/A,,Clear,30,2013-02-26 15:20:00
3:50 PM,50.0,33.8,54,30.63,-9999.0,NE,9.2,-,N/A,,Clear,40,2013-02-26 15:50:00
4:20 PM,50.0,35.6,58,30.63,-9999.0,NE,10.4,-,N/A,,Clear,40,2013-02-26 16:20:00
4:50 PM,48.2,35.6,62,30.63,-9999.0,NE,9.2,-,N/A,,Clear,50,2013-02-26 16:50:00
5:20 PM,46.4,35.6,66,30.63,-9999.0,ENE,8.1,-,N/A,,Clear,60,2013-02-26 17:20:00
5:50 PM,44.6,35.6,71,30.63,-9999.0,ENE,6.9,-,N/A,,Clear,70,2013-02-26 17:50:00
6:20 PM,42.8,35.6,76,30.63,-9999.0,NE,8.1,-,N/A,,Clear,50,2013-02-26 18:20:00
6:50 PM,41.0,35.6,81,30.66,-9999.0,ENE,6.9,-,N/A,,Clear,60,2013-02-26 18:50:00
7:20 PM,37.4,33.8,87,30.66,-9999.0,ENE,3.5,-,N/A,,Clear,70,2013-02-26 19:20:00
7:50 PM,37.4,33.8,87,30.66,-9999.0,Variable,3.5,-,N/A,,Clear,0,2013-02-26 19:50:00
8:20 PM,35.6,32.0,87,30.66,-9999.0,Calm,Calm,-,N/A,,Clear,0,2013-02-26 20:20:00
8:50 PM,35.6,32.0,87,30.69,-9999.0,NE,3.5,-,N/A,,Clear,40,2013-02-26 20:50:00
9:20 PM,33.8,32.0,93,30.69,-9999.0,Calm,Calm,-,N/A,,Clear,0,2013-02-26 21:20:00
9:50 PM,33.8,32.0,93,30.69,-9999.0,SE,4.6,-,N/A,,Clear,140,2013-02-26 21:50:00
10:20 PM,33.8,30.2,87,30.69,-9999.0,ESE,5.8,-,N/A,,Clear,120,2013-02-26 22:20:00
10:50 PM,32.0,30.2,93,30.69,-9999.0,East,5.8,-,N/A,,Clear,100,2013-02-26 22:50:00
11:20 PM,32.0,30.2,93,30.69,-9999.0,East,8.1,-,N/A,,Clear,90,2013-02-26 23:20:00
11:50 PM,32.0,30.2,93,30.69,-9999.0,Calm,Calm,-,N/A,,Clear,0,2013-02-26 23:50:00